Temp
-6 -5 -5 -5 -5 -5 -5 -5 -5 -5 -5 -5 -5 -6 -7 -7 -7 -7 -7 -7 -7 -6 -6 -6 -5 -5 -4 -4 -4 -5 -5 -4 -4 -4 -4 -4 -4 -4 -5 -4 -4 -4 -4 -4 -4
-6 -6 -6 -6 -5 -5 -5 -5 -5 -5 -5 -6 -6 -6 -6 -7 -7 -7 -7 -6 -7 -6 -7 -6 -6 -5 -5 -5 -5 -4 -4 -5 -4 -4 -4 -4 -3 -3 -5 -4 -4 -4 -4 -4 -4
-6 -5 -5 -5 -5 -5 -5 -5 -5 -5 -5 -5 -6 -6 -6 -7 -8 -6 -7 -6 -7 -7 -7 -6 -6 -6 -6 -6 -6 -6 -4 -5 -5 -4 -5 -4 -4 -4 -4 -5 -4 -4 -4 -4 -4
-6 -6 -5 -5 -5 -5 -5 -5 -5 -5 -5 -5 -6 -6 -6 -7 -7 -7 -7 -6 -7 -7 -7 -7 -7 -6 -6 -8 -6 -5 -5 -4 -4 -5 -5 -4 -4 -4 -4 -4 -4 -4 -4 -4 -4
-6 -5 -5 -5 -5 -5 -5 -5 -5 -5 -6 -6 -6 -6 -6 -6 -7 -7 -7 -7 -7 -7 -6 -7 -7 -6 -7 -8 -7 -5 -6 -5 -4 -4 -4 -4 -5 -5 -4 -4 -4 -4 -4 -4 -4
-6 -6 -6 -5 -5 -5 -5 -5 -5 -5 -6 -6 -6 -6 -6 -6 -5 -7 -7 -7 -7 -7 -7 -7 -7 -7 -8 -8 -8 -6 -5 -5 -5 -4 -5 -5 -4 -5 -4 -4 -4 -4 -4 -4 -4
-6 -6 -6 -5 -5 -5 -5 -5 -5 -6 -6 -6 -6 -6 -6 -7 -6 -7 -7 -7 -7 -7 -7 -7 -7 -7 -8 -8 -7 -7 -6 -6 -5 -5 -5 -4 -5 -6 -4 -4 -4 -4 -4 -4 -4
-6 -6 -6 -6 -6 -6 -6 -6 -6 -6 -6 -6 -6 -6 -6 -6 -6 -7 -7 -7 -7 -7 -7 -6 -7 -7 -7 -7 -7 -7 -7 -6 -7 -5 -6 -6 -6 -8 -5 -4 -4 -4 -4 -4 -4
-6 -6 -6 -6 -6 -6 -6 -6 -6 -6 -6 -6 -6 -6 -6 -6 -7 -7 -7 -7 -7 -7 -7 -7 -7 -7 -7 -7 -7 -8 -6 -6 -5 -5 -6 -5 -5 -5 -5 -5 -4 -4 -4 -4 -4
-7 -7 -7 -7 -7 -7 -7 -7 -7 -7 -7 -7 -7 -7 -7 -7 -7 -7 -7 -7 -7 -7 -7 -7 -7 -7 -7 -9 -8 -7 -7 -7 -6 -6 -7 -5 -6 -6 -6 -6 -4 -4 -4 -4 -4
-7 -7 -7 -8 -8 -8 -7 -7 -7 -7 -7 -7 -7 -7 -7 -7 -7 -8 -8 -8 -8 -7 -6 -7 -7 -7 -7 -8 -8 -7 -7 -6 -6 -7 -8 -7 -6 -6 -6 -6 -5 -5 -5 -4 -4
-9 -8 -8 -9 -9 -9 -8 -8 -8 -8 -8 -8 -7 -8 -7 -7 -8 -8 -8 -7 -7 -6 -7 -8 -6 -7 -8 -9 -9 -8 -8 -8 -7 -8 -7 -7 -8 -8 -6 -6 -6 -6 -5 -5 -4
-10 -10 -10 -10 -10 -10 -9 -9 -9 -9 -8 -8 -8 -8 -8 -7 -8 -8 -8 -8 -8 -7 -8 -7 -6 -8 -10 -10 -9 -9 -9 -8 -8 -8 -7 -8 -8 -8 -6 -6 -6 -5 -5 -5 -5
-12 -11 -11 -11 -11 -11 -10 -10 -10 -10 -9 -9 -9 -8 -8 -8 -8 -8 -8 -8 -8 -8 -8 -7 -8 -10 -10 -10 -9 -9 -9 -9 -8 -8 -8 -8 -7 -6 -8 -6 -6 -6 -6 -5 -5
-13 -13 -13 -12 -12 -12 -12 -12 -12 -12 -11 -12 -9 -8 -9 -9 -9 -8 -8 -9 -8 -8 -8 -7 -9 -11 -10 -10 -10 -9 -9 -9 -9 -9 -8 -8 -7 -7 -7 -6 -6 -6 -6 -5 -5
-14 -14 -14 -14 -14 -14 -13 -13 -13 -14 -14 -13 -11 -11 -10 -10 -9 -10 -9 -9 -9 -9 -9 -8 -11 -11 -10 -10 -10 -10 -9 -8 -9 -9 -8 -8 -7 -6 -7 -7 -7 -6 -7 -6 -5
-15 -15 -15 -15 -14 -14 -14 -14 -14 -14 -15 -15 -13 -13 -12 -12 -11 -11 -10 -10 -9 -9 -9 -9 -9 -11 -11 -10 -10 -10 -9 -9 -9 -9 -8 -7 -7 -7 -7 -8 -7 -7 -7 -7 -6
-15 -15 -15 -15 -15 -15 -14 -14 -14 -16 -16 -15 -14 -14 -14 -14 -13 -12 -11 -11 -10 -10 -11 -10 -10 -11 -11 -11 -10 -10 -9 -9 -9 -8 -7 -8 -7 -7 -7 -8 -7 -7 -7 -8 -7
-16 -16 -16 -15 -15 -15 -15 -15 -16 -17 -15 -15 -15 -15 -16 -15 -15 -14 -12 -12 -11 -11 -11 -12 -9 -11 -11 -11 -11 -10 -10 -9 -9 -8 -7 -6 -7 -8 -8 -8 -7 -7 -7 -8 -8
-16 -16 -16 -16 -16 -16 -16 -16 -16 -15 -15 -16 -16 -17 -16 -16 -16 -15 -14 -14 -14 -14 -13 -12 -12 -11 -11 -12 -11 -11 -10 -10 -9 -9 -8 -7 -8 -7 -8 -7 -8 -8 -8 -8 -7
-17 -16 -16 -16 -16 -16 -16 -18 -16 -15 -16 -16 -16 -17 -17 -16 -16 -15 -15 -15 -14 -12 -11 -11 -13 -11 -11 -11 -10 -10 -11 -9 -9 -9 -8 -7 -7 -7 -8 -8 -9 -9 -8 -7 -7
-17 -17 -17 -17 -17 -17 -17 -16 -16 -16 -16 -16 -16 -16 -18 -17 -16 -16 -15 -16 -14 -13 -12 -12 -13 -11 -11 -12 -12 -11 -11 -10 -10 -10 -9 -8 -7 -8 -8 -9 -9 -9 -9 -7 -7
-18 -17 -17 -17 -17 -19 -18 -17 -17 -17 -17 -17 -17 -17 -17 -17 -17 -17 -16 -15 -14 -14 -14 -13 -13 -12 -12 -12 -12 -12 -11 -11 -10 -10 -9 -8 -8 -8 -9 -9 -9 -9 -8 -8 -7
-17 -17 -17 -18 -18 -18 -18 -18 -18 -17 -17 -17 -17 -17 -17 -17 -17 -17 -16 -15 -15 -15 -14 -13 -14 -13 -12 -12 -12 -11 -12 -11 -11 -10 -10 -9 -9 -9 -9 -9 -10 -9 -8 -8 -7
-18 -18 -18 -19 -18 -19 -19 -18 -19 -20 -18 -17 -18 -17 -17 -18 -18 -17 -18 -15 -16 -15 -15 -15 -15 -14 -13 -13 -12 -12 -12 -12 -11 -11 -10 -10 -9 -9 -10 -10 -11 -10 -8 -8 -7
-18 -18 -19 -19 -19 -19 -19 -19 -20 -20 -19 -19 -19 -20 -19 -19 -19 -18 -18 -16 -17 -16 -15 -15 -15 -15 -14 -14 -13 -13 -13 -12 -12 -12 -11 -11 -10 -10 -10 -11 -11 -9 -8 -9 -8
-18 -19 -19 -19 -19 -19 -19 -19 -20 -21 -21 -19 -19 -20 -20 -20 -18 -18 -17 -17 -16 -16 -15 -15 -16 -15 -15 -14 -14 -14 -14 -13 -13 -13 -12 -12 -12 -11 -11 -11 -8 -8 -8 -9 -8
Height
5860 5861 5861 5862 5862 5863 5864 5865 5867 5868 5868 5869 5870 5871 5873 5876 5878 5880 5882 5883 5886 5887 5888 5889 5889 5890 5891 5892 5894 5896 5896 5898 5898 5900 5900 5901 5903 5904 5905 5906 5905 5907 5907 5909 5909
5859 5859 5859 5859 5859 5860 5861 5861 5861 5863 5865 5866 5867 5869 5870 5872 5875 5877 5881 5881 5885 5887 5888 5888 5890 5891 5892 5893 5896 5892 5894 5895 5898 5897 5899 5901 5902 5904 5907 5907 5908 5908 5909 5910 5910
5856 5856 5857 5857 5857 5857 5857 5857 5858 5859 5861 5863 5864 5865 5867 5870 5872 5874 5877 5879 5883 5885 5887 5888 5890 5891 5892 5894 5896 5893 5893 5894 5896 5898 5899 5901 5902 5903 5905 5907 5907 5908 5909 5911 5911
5853 5853 5853 5853 5854 5854 5854 5855 5855 5856 5857 5859 5861 5862 5864 5866 5869 5872 5874 5877 5881 5884 5886 5887 5889 5892 5893 5894 5895 5894 5893 5891 5892 5896 5898 5901 5902 5903 5905 5907 5907 5908 5908 5911 5912
5848 5848 5848 5848 5849 5849 5850 5850 5851 5852 5853 5855 5856 5857 5859 5862 5864 5868 5871 5874 5877 5882 5884 5886 5888 5890 5892 5893 5895 5894 5894 5893 5893 5896 5901 5900 5902 5903 5904 5905 5907 5908 5909 5911 5912
5842 5842 5842 5842 5843 5843 5844 5845 5846 5847 5849 5850 5852 5853 5855 5858 5860 5863 5866 5870 5874 5878 5881 5884 5885 5887 5890 5892 5894 5895 5893 5893 5893 5897 5898 5901 5902 5903 5905 5907 5907 5908 5909 5911 5913
5836 5835 5835 5835 5835 5836 5837 5839 5840 5841 5843 5844 5847 5848 5849 5853 5857 5859 5863 5866 5870 5874 5877 5881 5883 5886 5888 5892 5894 5896 5901 5898 5896 5898 5899 5898 5902 5905 5904 5905 5907 5907 5909 5912 5913
5828 5827 5828 5827 5827 5828 5829 5830 5832 5833 5835 5837 5839 5842 5845 5844 5851 5855 5858 5861 5865 5869 5873 5876 5880 5884 5887 5890 5894 5898 5898 5899 5897 5899 5898 5897 5894 5898 5902 5903 5906 5907 5909 5911 5912
5819 5819 5818 5818 5819 5820 5821 5822 5823 5825 5826 5829 5831 5834 5837 5843 5845 5848 5853 5857 5860 5864 5868 5873 5877 5882 5885 5890 5894 5897 5895 5895 5892 5897 5897 5898 5886 5891 5902 5903 5905 5906 5909 5910 5912
5810 5810 5810 5809 5809 5810 5811 5812 5814 5815 5817 5820 5822 5827 5830 5836 5836 5841 5846 5850 5855 5859 5863 5868 5874 5878 5883 5887 5896 5904 5901 5893 5889 5892 5889 5897 5895 5896 5902 5903 5904 5906 5908 5910 5911
5799 5799 5799 5799 5799 5799 5801 5802 5805 5805 5808 5811 5813 5816 5820 5826 5831 5835 5840 5843 5848 5853 5859 5864 5867 5872 5879 5884 5893 5893 5893 5893 5887 5888 5899 5900 5895 5899 5902 5903 5905 5907 5908 5909 5910
5788 5787 5787 5787 5788 5788 5789 5791 5793 5795 5798 5800 5803 5806 5810 5817 5821 5826 5830 5835 5839 5848 5854 5856 5860 5870 5876 5884 5888 5889 5891 5897 5898 5893 5899 5904 5906 5899 5901 5904 5906 5907 5907 5908 5909
5777 5776 5776 5776 5776 5776 5776 5779 5780 5782 5786 5788 5793 5797 5801 5807 5812 5816 5821 5829 5834 5841 5845 5851 5863 5864 5871 5877 5882 5885 5889 5896 5900 5894 5898 5903 5904 5905 5901 5904 5905 5906 5907 5908 5909
5766 5764 5763 5763 5764 5763 5764 5766 5767 5769 5773 5777 5781 5785 5790 5797 5801 5807 5813 5820 5824 5832 5839 5846 5856 5860 5863 5871 5879 5882 5885 5890 5890 5892 5900 5898 5907 5902 5905 5902 5905 5906 5906 5907 5908
5755 5752 5751 5750 5751 5752 5753 5754 5756 5758 5764 5760 5765 5773 5779 5787 5791 5797 5804 5809 5815 5824 5831 5837 5844 5853 5857 5864 5872 5878 5885 5887 5888 5890 5895 5896 5902 5903 5901 5903 5904 5904 5905 5906 5908
5745 5742 5741 5741 5741 5743 5744 5745 5749 5752 5754 5752 5752 5762 5767 5774 5780 5784 5793 5799 5808 5814 5819 5830 5838 5844 5853 5862 5864 5873 5878 5878 5884 5889 5891 5896 5902 5907 5905 5901 5901 5901 5902 5905 5907
5737 5734 5733 5733 5735 5735 5736 5738 5742 5744 5744 5748 5748 5751 5758 5763 5769 5774 5782 5788 5793 5801 5807 5821 5824 5837 5844 5854 5857 5864 5872 5874 5880 5882 5887 5895 5898 5903 5897 5897 5901 5900 5901 5903 5905
5728 5726 5725 5726 5727 5727 5729 5732 5734 5738 5741 5736 5741 5743 5749 5756 5758 5764 5772 5778 5785 5793 5803 5811 5816 5822 5834 5841 5851 5856 5865 5871 5875 5881 5887 5889 5892 5897 5894 5894 5896 5899 5900 5901 5902
5722 5719 5718 5718 5719 5721 5722 5724 5727 5730 5728 5731 5733 5736 5742 5749 5749 5754 5762 5769 5777 5784 5792 5804 5809 5819 5826 5834 5841 5851 5854 5867 5873 5877 5883 5888 5889 5891 5887 5890 5892 5893 5897 5899 5899
5716 5713 5711 5711 5712 5713 5715 5717 5716 5718 5722 5724 5727 5732 5738 5741 5743 5750 5756 5763 5770 5772 5782 5792 5806 5811 5817 5824 5829 5836 5854 5856 5860 5867 5873 5881 5881 5886 5885 5886 5888 5890 5892 5893 5893
5710 5708 5705 5705 5706 5707 5708 5710 5708 5711 5714 5717 5721 5724 5729 5736 5739 5747 5752 5748 5751 5759 5769 5782 5790 5803 5811 5809 5819 5827 5834 5845 5857 5862 5868 5875 5879 5882 5879 5881 5882 5881 5884 5884 5888
5708 5705 5703 5701 5701 5701 5701 5700 5702 5703 5706 5709 5712 5716 5720 5725 5730 5741 5746 5736 5747 5755 5762 5773 5785 5794 5800 5808 5813 5821 5829 5838 5844 5850 5860 5867 5875 5877 5878 5878 5877 5872 5874 5877 5883
5707 5705 5702 5699 5697 5698 5694 5695 5694 5695 5698 5701 5705 5709 5712 5717 5723 5728 5723 5733 5743 5748 5753 5763 5771 5785 5796 5800 5802 5806 5819 5827 5837 5846 5851 5859 5867 5867 5865 5869 5866 5866 5870 5872 5874
5706 5701 5698 5695 5693 5691 5687 5686 5684 5686 5689 5692 5696 5699 5705 5710 5715 5718 5723 5729 5735 5741 5748 5755 5762 5774 5788 5795 5799 5799 5808 5817 5826 5834 5842 5849 5860 5863 5865 5867 5862 5860 5857 5867 5868
5702 5698 5694 5691 5687 5683 5679 5678 5674 5676 5679 5683 5688 5693 5699 5705 5709 5714 5719 5723 5729 5736 5742 5748 5756 5766 5776 5779 5787 5793 5798 5807 5815 5825 5833 5844 5849 5854 5856 5855 5851 5845 5856 5861 5865
5696 5692 5688 5684 5681 5677 5673 5669 5665 5665 5670 5675 5680 5686 5690 5698 5705 5710 5710 5715 5722 5728 5735 5741 5750 5754 5763 5768 5777 5782 5790 5797 5806 5814 5820 5828 5836 5847 5847 5839 5839 5840 5850 5855 5859
5691 5687 5682 5678 5675 5671 5666 5661 5657 5654 5658 5662 5670 5675 5681 5683 5688 5694 5701 5708 5714 5723 5729 5735 5744 5749 5759 5766 5770 5773 5779 5786 5795 5802 5809 5817 5823 5827 5826 5820 5826 5838 5841 5847 5852
Wind_Speed
7 8 10 11 11 10 11 13 14 13 13 12 12 10 11 11 10 11 14 13 13 13 11 7 9 13 13 14 11 7 13 18 16 16 21 17 13 14 12 11 9 7 7 9 9
9 10 11 12 12 13 14 14 13 12 14 14 14 12 11 11 11 12 14 16 14 14 13 9 8 12 14 14 13 6 10 18 27 27 20 20 17 17 9 9 8 7 7 9 10
11 12 14 15 15 16 16 16 17 17 16 14 15 14 13 11 12 13 17 18 17 17 15 13 10 9 10 11 11 3 5 14 23 30 22 20 17 18 12 8 9 9 7 10 10
16 16 17 17 18 19 19 20 20 20 19 19 17 17 16 16 19 14 18 20 21 20 17 16 13 12 8 7 6 3 2 7 26 30 23 20 18 15 14 13 9 9 11 12 10
21 22 21 21 20 21 22 23 23 23 23 21 21 20 20 19 19 16 18 21 23 23 22 19 17 15 3 7 3 7 6 2 13 19 20 17 18 15 16 6 8 9 12 12 11
24 24 24 25 26 25 23 24 25 26 26 26 24 24 24 22 17 18 21 24 26 26 25 23 22 21 12 10 9 5 3 5 1 10 21 25 20 16 13 11 12 11 12 12 11
25 26 27 28 28 29 29 29 27 28 29 30 29 29 27 25 21 21 20 25 29 29 28 26 25 24 21 13 10 4 6 9 6 6 30 8 15 11 12 12 14 12 11 11 12
28 29 29 29 29 31 32 33 33 32 31 33 33 33 31 32 24 23 23 26 31 33 32 31 28 28 24 18 11 5 5 13 9 4 8 21 17 19 11 8 13 13 12 11 11
31 30 30 31 30 30 31 33 33 34 34 34 36 36 36 31 30 28 26 26 31 35 35 32 31 30 28 21 14 10 19 20 25 12 15 12 22 14 8 7 7 9 15 12 12
34 33 32 33 34 34 34 34 34 34 34 33 35 38 39 35 38 34 29 30 30 36 39 36 34 34 32 25 14 11 21 24 11 14 4 12 15 6 6 6 5 7 11 14 13
36 36 36 35 35 37 37 37 36 37 36 35 37 36 40 38 38 36 33 33 32 35 37 38 39 37 32 28 20 22 15 19 6 21 7 12 17 12 8 7 8 7 7 9 12
37 38 38 38 38 39 39 39 39 40 38 38 38 37 38 39 41 43 42 40 38 32 36 44 43 37 32 25 28 21 24 14 16 13 16 8 11 17 7 7 8 6 4 6 8
37 39 40 40 40 42 41 40 40 41 41 42 41 40 40 39 43 45 47 42 39 36 38 41 36 40 31 30 31 29 22 18 17 18 20 18 15 10 16 10 7 7 6 6 6
39 41 42 41 41 41 41 40 40 41 42 43 43 43 44 42 42 45 47 47 46 42 39 37 38 32 37 33 30 29 26 20 18 23 8 18 8 17 16 15 9 5 5 6 4
33 33 32 33 32 30 30 31 32 35 34 40 49 49 47 45 45 44 46 50 51 47 45 40 43 39 37 38 34 29 23 27 18 20 17 9 16 13 11 16 14 11 7 7 6
30 30 29 27 23 22 23 25 25 26 24 34 46 40 46 46 47 47 46 48 51 52 51 44 39 41 39 34 38 29 27 26 27 24 25 20 17 14 17 15 19 15 12 10 8
29 27 26 24 22 21 20 22 24 23 24 24 31 36 38 42 46 47 46 48 54 57 56 49 47 38 39 38 40 35 33 24 25 29 27 21 21 20 24 13 16 18 18 14 12
25 25 25 26 24 22 21 22 24 19 16 30 26 30 31 29 42 47 44 46 51 55 51 53 51 47 40 43 42 39 38 36 34 24 25 24 27 24 20 18 20 24 13 18 15
20 21 22 24 25 23 22 23 18 16 29 25 25 28 25 25 33 39 44 43 45 54 51 41 52 39 43 42 41 39 45 37 32 27 27 23 25 26 28 32 28 26 25 20 24
18 17 18 17 18 21 22 21 25 29 21 21 22 17 21 25 30 27 33 34 30 42 45 44 34 41 41 41 45 45 37 39 40 37 33 29 23 21 24 23 24 27 32 32 32
14 15 13 15 18 18 19 17 30 23 24 24 23 24 27 20 27 23 28 38 51 52 57 56 37 31 37 48 47 51 46 37 36 39 35 32 27 28 13 20 20 27 40 44 35
12 13 10 10 13 16 18 27 26 26 26 28 29 29 25 27 30 20 29 43 45 43 42 52 35 29 43 38 42 38 43 43 40 41 39 34 28 24 21 26 37 27 33 45 33
14 16 18 14 14 8 20 23 26 28 28 31 32 31 35 37 30 34 34 34 36 34 35 40 50 39 32 33 34 43 40 43 41 30 37 34 35 22 20 28 32 36 37 35 35
17 21 25 23 19 17 19 23 31 29 29 31 34 36 34 35 37 32 37 34 33 35 32 38 44 44 39 31 34 41 40 37 42 40 36 36 30 32 20 15 23 40 44 33 31
20 23 24 20 19 21 21 26 23 27 31 33 34 34 32 30 28 33 28 38 36 34 31 30 30 33 38 40 34 34 42 40 37 41 37 33 34 31 29 26 34 42 40 38 36
20 20 20 19 18 21 19 21 21 29 31 31 32 26 32 33 25 25 33 37 33 36 33 32 28 34 39 41 46 35 29 35 38 37 38 35 33 28 33 44 45 51 42 43 42
18 19 20 17 17 20 21 22 19 22 28 32 36 33 27 35 44 45 40 39 39 36 36 34 28 33 29 29 39 39 35 30 35 34 33 32 33 37 37 51 54 40 46 45 49
Wind_Direction
262 261 262 260 256 254 256 253 245 243 249 252 254 247 230 219 206 193 194 201 176 166 165 163 154 134 127 117 111 150 194 190 183 204 194 195 210 194 194 185 176 147 166 161 151
270 267 264 263 264 262 257 257 259 255 250 251 254 251 249 234 217 200 194 204 185 176 173 176 161 138 134 110 122 279 200 182 196 199 191 201 208 204 202 200 213 176 152 166 161
285 277 269 265 262 261 264 263 258 254 252 248 246 247 245 240 227 222 198 203 194 183 181 181 167 153 136 135 137 248 235 211 212 198 197 207 201 202 206 215 197 203 180 176 175
284 281 276 269 262 260 260 260 259 259 254 249 246 242 238 229 218 201 206 201 200 189 188 184 173 152 178 122 149 195 152 239 218 211 206 206 209 207 205 212 227 219 182 179 191
284 277 275 272 268 263 258 256 256 256 256 255 249 245 242 236 235 210 211 204 203 195 193 188 179 173 245 150 204 176 256 306 204 219 178 197 209 203 209 221 208 200 178 181 200
281 276 271 267 265 264 263 258 255 254 252 250 250 248 243 239 243 218 210 206 202 203 198 192 189 184 189 167 181 184 352 244 343 229 201 203 204 199 199 201 205 204 194 194 217
277 274 273 269 264 259 259 259 259 255 249 248 244 244 245 242 240 228 218 210 202 206 205 200 195 191 185 178 203 163 214 245 280 26 192 175 198 215 214 209 224 212 213 207 213
282 276 273 270 265 260 257 257 258 257 254 246 244 243 241 242 238 230 221 215 208 204 209 203 198 192 192 188 185 189 225 182 268 125 174 189 180 229 220 218 229 227 217 214 220
281 276 274 271 268 264 260 257 256 254 253 249 243 241 239 238 236 230 225 220 212 207 209 209 205 198 197 192 193 217 247 204 196 164 228 192 149 164 222 218 228 232 231 224 227
280 275 272 270 269 267 264 258 256 254 252 249 246 241 241 234 233 233 227 223 219 211 207 211 209 206 200 195 198 221 245 259 250 172 204 294 281 326 252 240 251 240 245 243 242
278 274 271 268 266 264 262 260 256 253 252 250 247 242 240 237 235 232 228 225 221 217 209 208 217 209 204 201 201 211 211 245 306 236 183 198 238 244 258 259 261 265 257 247 235
277 274 271 269 267 265 262 259 257 256 249 248 247 242 244 235 231 229 228 226 223 220 214 212 209 211 210 201 213 221 196 231 220 260 201 218 232 267 234 254 246 236 235 229 231
278 274 272 271 269 266 264 261 257 254 250 248 245 242 240 236 232 228 227 227 226 222 217 216 208 214 214 206 209 222 211 215 231 261 231 213 234 241 254 235 239 232 235 226 215
281 279 277 275 271 268 265 262 258 255 252 248 243 240 238 234 230 229 228 225 223 220 219 217 206 226 215 215 214 221 215 210 226 243 232 256 229 258 245 261 242 241 244 242 236
287 283 280 277 272 265 260 256 255 254 251 248 241 241 237 235 230 226 227 225 224 222 216 215 213 208 224 216 216 217 213 231 233 229 223 265 207 253 208 249 258 259 250 234 235
292 288 279 270 269 266 258 251 247 249 252 249 248 238 237 232 232 226 223 221 223 223 220 215 217 217 218 222 223 217 221 219 223 230 232 221 227 228 250 266 265 247 240 231 234
291 286 274 263 258 260 257 252 245 245 247 253 251 246 238 234 230 228 222 219 220 220 221 215 213 218 216 213 226 209 218 226 226 225 227 226 233 212 231 184 202 255 249 233 238
289 285 273 262 260 259 257 251 244 236 237 251 259 250 236 227 232 229 224 221 218 219 222 219 218 208 214 211 221 213 215 219 226 225 232 232 222 229 226 235 235 218 211 256 252
303 289 280 266 259 258 257 251 238 230 240 255 251 240 233 219 223 226 223 224 219 216 217 218 223 224 213 215 212 211 220 211 224 226 228 233 243 226 239 231 224 230 226 235 238
315 311 286 276 264 259 251 243 230 239 246 245 238 232 216 231 227 223 221 219 214 214 211 208 225 221 223 217 218 204 219 220 216 221 224 225 227 219 241 233 227 236 221 226 234
317 315 306 281 272 271 252 241 236 240 238 230 225 219 199 214 220 214 215 215 210 214 216 206 207 212 209 220 218 215 206 218 227 223 221 222 223 229 230 213 195 223 225 234 227
45 29 352 310 284 269 259 247 246 241 232 225 227 227 212 214 207 197 212 225 214 219 216 209 211 194 217 213 218 217 221 213 221 216 220 222 222 234 243 238 234 223 231 227 225
6 2 0 6 13 319 296 263 254 242 232 224 224 223 222 219 210 197 220 214 207 213 208 205 205 197 210 217 221 210 215 216 218 219 221 220 221 219 226 222 227 233 236 228 207
327 335 339 336 335 335 330 307 258 243 236 226 222 224 223 221 219 218 224 219 217 212 210 212 204 195 206 219 221 216 209 214 216 221 218 219 219 216 222 229 247 236 241 230 217
322 322 322 320 314 323 328 321 271 246 230 225 223 220 220 217 217 220 222 219 218 212 214 209 195 209 195 215 205 226 218 213 215 214 220 222 221 216 222 226 221 235 226 232 222
326 325 325 311 310 311 310 328 301 247 235 225 217 220 214 208 209 217 215 216 218 214 213 212 205 207 193 215 203 200 207 219 218 221 220 213 213 221 231 233 234 229 222 227 229
331 332 327 319 310 317 318 309 310 255 228 220 221 199 210 204 210 208 208 210 215 212 210 208 200 209 205 214 211 217 214 204 207 214 223 225 223 217 217 232 228 220 222 226 230